Regional Weather Roundup
Issued by NWS

Home | Current Version | Previous Version | Text Only | Print | Product List | Glossary Off
Versions: 1 2 3 4 5 6 7 8 9 10 11 12 13 14 15 16 17 18 19 20 21 22 23 24 25 26 27 28 29 30 31 32 33 34 35 36 37 38 39 40 41 42 43 44 45 46 47 48 49 50

000
ASUS43 KLMK 221302
RWRKY
KENTUCKY REGIONAL WEATHER ROUNDUP
NATIONAL WEATHER SERVICE LOUISVILLE KY
800 AM EST WED FEB 22 2017

NOTE "FAIR" INDICATES FEW OR NO CLOUDS BELOW 12,000 FEET
WITH NO SIGNIFICANT WEATHER AND/OR OBSTRUCTIONS TO VISIBILITY.

KYZ001>023-026-027-061>063-070>075-221400-
WESTERN AND SOUTH CENTRAL KENTUCKY

CITY           SKY/WX    TMP DP  RH WIND       PRES   REMARKS
PADUCAH        CLOUDY    57  55  93 CALM      29.90R FOG
HENDERSON      CLOUDY    54  50  87 CALM      29.91R VSB 1
OWENSBORO      MOCLDY    55  54  96 CALM      29.92R FOG
HOPKINSVILLE   MOCLDY    56  56 100 SE6       29.89F
BOWLING GREEN  CLOUDY    57  55  93 E3        29.93S FOG
GLASGOW        NOT AVBL
$$

KYZ024-025-028>034-038-045-046-053-221400-
NORTH CENTRAL KENTUCKY

CITY           SKY/WX    TMP DP  RH WIND       PRES   REMARKS
LOUISVILLE/SDF CLOUDY    58  54  86 SE6       29.93R
LOUISVILLE/LOU CLOUDY    58  54  86 SE5       29.93S
FORT KNOX      CLOUDY    54  54 100 SE5       29.91S FOG
$$

KYZ035>037-039>044-047>052-055>060-089>105-221400-
NORTHEAST KENTUCKY

CITY           SKY/WX    TMP DP  RH WIND       PRES   REMARKS
LEXINGTON      CLOUDY    56  53  90 SE6       29.95R
COVINGTON      CLOUDY    56  55  97 S6        29.93R FOG
FRANKFORT      CLOUDY    56  53  90 CALM      29.94R FOG
$$

KYZ054-064>069-076>088-106>120-221400-
SOUTHEAST KENTUCKY

CITY           SKY/WX    TMP DP  RH WIND       PRES   REMARKS
JACKSON        CLOUDY    53  52  96 CALM      29.97R FOG
LONDON         LGT RAIN  54  50  86 N7        29.96R
SOMERSET       DRIZZLE   52  52 100 N5        29.98R
MIDDLESBORO    LGT RAIN  52  52 100 CALM      30.00R
MONTICELLO     LGT RAIN  55  54  96 VRB6      29.97R
$$




USA.gov is the U.S. government's official web portal to all federal, state and local government web resources and services.